Cape Girardeau, MO

6:54 AM CST on November 20, 2017 (GMT -0600)
Cape Girardeau Regional

Weather History for KCGI - July, 2012

Change the Weather History Date:

Saturday, July 21, 2012

  Actual Average Record
Temperature  
Mean Temperature 81 °F 79 °F  
Max Temperature 93 °F 89 °F 102 °F (1973)
Min Temperature 68 °F 68 °F 55 °F (2007)
Degree Days  
Heating Degree Days 0 0  
Month to date heating degree days 0 0  
Since 1 June heating degree days 5 4  
Since 1 July heating degree days 0 0  
Cooling Degree Days 16 14  
Month to date cooling degree days 408 291  
Year to date cooling degree days 1076 755  
Since 1 June cooling degree days 731 603  
Growing Degree Days 32 (Base 50)    
Moisture  
Dew Point 62 °F    
Average Humidity 57    
Maximum Humidity 84    
Minimum Humidity 30    
Precipitation  
Precipitation 0.00 in 0.11 in 1.43 in (1990)
Month to date precipitation 1.79 2.28  
Year to date precipitation 13.29 26.95  
Sea Level Pressure  
Sea Level Pressure 30.02 in    
Wind  
Wind Speed 7 mph (NE)    
Max Wind Speed 14 mph    
Max Gust Speed 18 mph    
Visibility 10 miles    
Events      
T = Trace of Precipitation, MM = Missing Value Source: NWS Daily Summary

Daily Weather History Graph

Daily Weather History Graph

Search for Another Location

Airport or City:

Trip Planner

Search our weather history database for the weather conditions in past years. The results will help you decide how hot, cold, wet, or windy it might be!

Date:

Astronomy

Jul. 21, 2012 Rise Set
Actual Time 5:54 AM CDT 8:14 PM CDT
Civil Twilight 5:24 AM CDT 8:44 PM CDT
Nautical Twilight 4:48 AM CDT 9:20 PM CDT
Astronomical Twilight 4:08 AM CDT 10:00 PM CDT
Moon 8:30 AM CDT (7/21) 9:32 PM CDT (7/21)
Length of Visible Light 15h 19m
Length of Day
14h 19m
Waxing Crescent, 7% of the Moon is Illuminated
Jul 21
Waxing Crescent
Jul 26
First Quarter
Aug 1
Full
Aug 9
Last Quarter
Aug 17
New

Hourly Weather History & Observations

Time (CDT) Temp. Heat Index Dew Point Humidity Pressure Visibility Wind Dir Wind Speed Gust Speed Precip Events Conditions
12:53 AM 77.0 °F - 68.0 °F 74% 30.00 in 10.0 mi NE 8.1 mph - N/A   Clear
1:53 AM 75.0 °F - 68.0 °F 79% 29.99 in 10.0 mi NE 6.9 mph - N/A   Clear
2:53 AM 73.0 °F - 66.9 °F 81% 29.99 in 10.0 mi NE 4.6 mph - N/A   Clear
3:53 AM 73.0 °F - 66.9 °F 81% 29.99 in 10.0 mi NE 6.9 mph - N/A   Clear
4:53 AM 73.0 °F - 66.9 °F 81% 30.01 in 10.0 mi NE 6.9 mph - N/A   Clear
5:53 AM 72.0 °F - 66.9 °F 84% 30.03 in 10.0 mi NE 5.8 mph - N/A   Clear
6:53 AM 73.0 °F - 66.9 °F 81% 30.04 in 10.0 mi NE 8.1 mph - N/A   Clear
7:53 AM 75.0 °F - 66.9 °F 76% 30.04 in 10.0 mi NE 11.5 mph - N/A   Clear
8:53 AM 77.0 °F - 66.0 °F 69% 30.05 in 10.0 mi NE 8.1 mph - N/A   Clear
9:53 AM 80.1 °F 82.1 °F 66.0 °F 62% 30.05 in 10.0 mi NE 11.5 mph - N/A   Clear
10:53 AM 82.9 °F 84.0 °F 63.0 °F 51% 30.06 in 10.0 mi ENE 10.4 mph - N/A   Clear
11:53 AM 86.0 °F 86.1 °F 61.0 °F 43% 30.05 in 10.0 mi ENE 10.4 mph - N/A   Clear
12:53 PM 87.1 °F 87.0 °F 61.0 °F 41% 30.04 in 10.0 mi NE 4.6 mph - N/A   Clear
1:53 PM 90.0 °F 89.7 °F 60.1 °F 37% 30.03 in 10.0 mi NNE 9.2 mph - N/A   Clear
2:53 PM 91.9 °F 91.5 °F 60.1 °F 34% 30.02 in 10.0 mi NE 8.1 mph - N/A   Clear
3:53 PM 93.0 °F 92.3 °F 59.0 °F 32% 30.00 in 10.0 mi NNE 5.8 mph - N/A   Clear
4:53 PM 93.0 °F 92.0 °F 57.9 °F 31% 29.99 in 10.0 mi NE 8.1 mph - N/A   Clear
5:53 PM 91.9 °F 90.3 °F 55.9 °F 30% 29.99 in 10.0 mi NE 8.1 mph - N/A   Clear
6:53 PM 90.0 °F 88.1 °F 55.9 °F 31% 29.99 in 10.0 mi ENE 6.9 mph - N/A   Clear
7:53 PM 84.0 °F 83.5 °F 57.9 °F 41% 30.00 in 10.0 mi East 4.6 mph - N/A   Clear
8:53 PM 79.0 °F - 57.9 °F 48% 30.00 in 10.0 mi East 4.6 mph - N/A   Clear
9:53 PM 79.0 °F - 55.9 °F 45% 30.01 in 10.0 mi ENE 3.5 mph - N/A   Clear
10:53 PM 73.9 °F - 59.0 °F 59% 30.03 in 10.0 mi East 3.5 mph - N/A   Clear
11:53 PM 73.9 °F - 59.0 °F 59% 30.03 in 10.0 mi East 4.6 mph - N/A   Clear